This is the latest recevied weather packets stored in our database for station/object YO8PIC-12. If no packets are shown the sender has not sent any weather packets the latest 10 day(s).
| Time | Temp. | Humidity | Pressure | Rain* | Wind** | Luminosity | Snow |
|---|---|---|---|---|---|---|---|
| 1787747353 | 22.78° C | 66% | 1023.6 hPa | - | - | - | - |
| 1787746753 | 22.78° C | 67% | 1023.6 hPa | - | - | - | - |
| 1787746153 | 22.22° C | 67% | 1023.4 hPa | - | - | - | - |
| 1787745553 | 21.67° C | 68% | 1023.5 hPa | - | - | - | - |
| 1787744953 | 21.67° C | 68% | 1023.5 hPa | - | - | - | - |
| 1787744353 | 22.22° C | 68% | 1023.5 hPa | - | - | - | - |
| 1787743416 | 22.22° C | 68% | 1023.5 hPa | - | - | - | - |
| 1787742816 | 23.33° C | 64% | 1023.3 hPa | - | - | - | - |
| 1787742216 | 24.44° C | 66% | 1023.2 hPa | - | - | - | - |
| 1787741616 | 23.89° C | 68% | 1023.2 hPa | - | - | - | - |
| 1787741016 | 23.33° C | 71% | 1023.4 hPa | - | - | - | - |
| 1787740416 | 22.78° C | 71% | 1023.4 hPa | - | - | - | - |
| 1787739816 | 22.78° C | 72% | 1023.4 hPa | - | - | - | - |
| 1787739216 | 23.33° C | 70% | 1023.4 hPa | - | - | - | - |
| 1787738616 | 23.33° C | 72% | 1023.5 hPa | - | - | - | - |
| 1787738016 | 22.78° C | 73% | 1023.4 hPa | - | - | - | - |
| 1787737416 | 22.78° C | 75% | 1023.3 hPa | - | - | - | - |
| 1787736816 | 22.22° C | 75% | 1023.3 hPa | - | - | - | - |
| 1787736216 | 22.22° C | 75% | 1023.3 hPa | - | - | - | - |
| 1787735616 | 22.22° C | 74% | 1023.3 hPa | - | - | - | - |
| 1787735016 | 22.78° C | 77% | 1023.3 hPa | - | - | - | - |
| 1787734416 | 22.78° C | 78% | 1023.2 hPa | - | - | - | - |
| 1787733816 | 22.22° C | 77% | 1023.2 hPa | - | - | - | - |
| 1787733216 | 22.22° C | 76% | 1023.4 hPa | - | - | - | - |
| 1787732616 | 22.22° C | 78% | 1023.2 hPa | - | - | - | - |
* Rain since midnight (hover to see other rain measurements)
** Current wind speed in m/s (hover to see current wind gust speed)